Погода в Плитвицких озерах

Хорватия     44°52′56″N   15°37′23″E
темп.,
°C
ветер,
м/с
пор.,
м/с
влажн.,
%
обл.,
%
осадки,
мм/ч
давл.,
гПа
погр.,
м
17 августа, ср
ср1723:00+17юз22900 0.0 101439
02:00+16юз22940 0.0 101447
05:00+15юз22950 0.0 101441
08:00+20юз22740 0.0 1014136
11:00+27зюз24440 0.0 10141237
14:00+30зсз55320 0.0 10132208
17:00+29зсз35310 0.0 10121338
20:00+20юз22590 0.0 101319
18 августа, чт
чт1823:00+19юз32610 0.0 101439
02:00+18юз22520 0.0 101334
05:00+18юз22500 0.0 101236
08:00+21юз23540 0.0 101384
11:00+30юз3530100 0.0 10121109
14:00+33з482514 0.0 10102367
17:00+30з463222 0.0 1011888
20:00+22юз226068 0.0 101019
19 августа, пт
пт1923:00+20ю21575 0.0 101013
02:00+18юз2267100 0.1 101025
05:00+18юз226989 0.0 101030
08:00+20ю3975100 0.3 1009348
11:00+27ююз493811 0.4 10091253
14:00+28зюз244137 0.5 10081182
17:00+23сз2563100 0.1 1008286
20:00+18ююз118599 0.6 101012
20 августа, сб
сб2023:00+16юз229189 0.4 101222
02:00+17зюз1186100 0.6 101112
05:00+15ссв1195100 1.5 101211
08:00+17ссз019571 1.8 1014113
11:00+21св227059 0.0 1014598
14:00+20ссв137233 0.0 1015373
17:00+19с028832 1.2 1015141
20:00+17ссв11885 1.3 101515
21 августа, вс
вс2123:00+15з11850 0.0 101611
02:00+14зюз11872 0.0 101711
05:00+14юз11900 0.0 101611
08:00+18ссз01750 0.0 1016106
11:00+23св49490 0.0 10161487
14:00+26ссв464013 0.0 10141989
17:00+26ссв47351 0.0 10132489
20:00+19св145677 0.0 1013103